Regional Weather Roundup
Issued by NWS

Home | Current Version | Previous Version | Graphics & Text | Print | Product List | Glossary On
Versions: 1 2 3 4 5 6 7 8 9 10 11 12 13 14 15 16 17 18 19 20 21 22 23 24 25 26 27 28 29 30 31 32 33 34 35 36 37 38 39 40 41 42 43 44 45 46 47 48 49 50
000
ASUS43 KLMK 270302
RWRKY
KENTUCKY REGIONAL WEATHER ROUNDUP
NATIONAL WEATHER SERVICE LOUISVILLE KY
1100 PM EDT TUE MAY 26 2015

NOTE "FAIR" INDICATES FEW OR NO CLOUDS BELOW 12,000 FEET
WITH NO SIGNIFICANT WEATHER AND/OR OBSTRUCTIONS TO VISIBILITY.

KYZ001>023-026-027-061>063-070>075-270400-
WESTERN AND SOUTH CENTRAL KENTUCKY

CITY           SKY/WX    TMP DP  RH WIND       PRES   REMARKS
PADUCAH        FAIR      69  61  75 SW3       30.06R
HENDERSON      CLEAR     70  61  73 SW8       30.04R
OWENSBORO      CLEAR     68  64  86 SW7       30.06R
HOPKINSVILLE   CLEAR     70  65  85 S3        30.08R
BOWLING GREEN  MOCLDY    73  69  87 SW5       30.09R
GLASGOW        NOT AVBL
$$

KYZ024-025-028>034-038-045-046-053-270400-
NORTH CENTRAL KENTUCKY

CITY           SKY/WX    TMP DP  RH WIND       PRES   REMARKS
LOUISVILLE/SDF MOCLDY    71  67  87 S8        30.05R
LOUISVILLE/LOU MOCLDY    69  66  90 S7        30.05R
FORT KNOX      MOCLDY    68  67  94 S8        30.05R
$$

KYZ035>037-039>044-047>052-055>060-089>105-270400-
NORTHEAST KENTUCKY

CITY           SKY/WX    TMP DP  RH WIND       PRES   REMARKS
LEXINGTON      CLOUDY    67  64  90 S12       30.09R
COVINGTON      CLOUDY    67  65  93 S8        30.04R
FRANKFORT      CLOUDY    66  64  93 S8        30.06R
$$

KYZ054-064>069-076>088-106>120-270400-
SOUTHEAST KENTUCKY

CITY           SKY/WX    TMP DP  RH WIND       PRES   REMARKS
JACKSON        LGT RAIN  66  63  90 CALM      30.14F
LONDON         CLOUDY    67  63  87 SE3       30.14R
SOMERSET       NOT AVBL
MIDDLESBORO    CLOUDY    71  67  87 SW13G21   30.17S
MONTICELLO     CLOUDY    70  68  93 S8        30.15R
$$




USA.gov is the U.S. government's official web portal to all federal, state and local government web resources and services.